This demonstration page uses our WeatherBlox Daily Observations layout. Learn more.

41.55636, -103.73856

Hourly Observations for June 3, 2020

Temp ( °F °C ) Dew Point ( °F °C ) Humidity (%) Winds ( mph kmh ) Pressure ( in mb ) Visibility ( mi km ) Precip ( " mm )
12:58 am 00:58 Mostly Cloudy 73 22.9 54 12 50 50 Calm 30.02 1017 10 16.0934 0 0
1:58 am 01:58 Mostly Cloudy with Light Rain 71 21.7 55 12.9 57 57 SSE 10 17 30.05 1018 10 16.0934 0 0
2:58 am 02:58 Mostly Clear 68 19.9 55 12.6 63 63 SE 15 24 30.01 1016 10 16.0934 0 0
3:58 am 03:58 Clear 66 18.7 54 12.2 66 66 SE 14 22 30.01 1016 10 16.0934 0 0
4:58 am 04:58 Partly Cloudy 65 18.3 55 12.5 69 69 E 13 20 30.05 1018 10 16.0934 0 0
5:58 am 05:58 Clear 61 16.1 53 11.8 76 76 SE 12 19 30.03 1017 10 16.0934 0 0
6:58 am 06:58 Clear 62 16.8 52 11.3 70 70 SSE 14 22 30.01 1016 10 16.0934 0 0
7:58 am 07:58 Clear 60 15.5 53 11.4 77 77 S 10 17 30 1016 10 16.0934 0 0
8:58 am 08:58 Clear 59 15.2 53 11.4 78 78 S 8 13 29.99 1016 10 16.0934 0 0
9:58 am 09:58 Mostly Cloudy 59 15.2 53 11.5 79 79 SSW 6 9 29.98 1015 10 16.0934 0 0
10:58 am 10:58 Mostly Cloudy 62 16.6 54 12.2 75 75 SSE 12 19 29.96 1015 10 16.0934 0 0
11:58 am 11:58 Mostly Cloudy 60 15.5 54 12 80 80 SE 10 17 29.96 1015 10 16.0934 0 0
12:58 pm 12:58 Mostly Sunny 63 17.1 53 11.9 72 72 S 10 17 29.98 1015 10 16.0934 0 0
1:58 pm 13:58 Sunny 67 19.6 55 13 66 66 SSW 17 28 29.96 1014 10 16.0934 0 0
2:58 pm 14:58 Sunny 72 22.3 57 13.9 59 59 SW 17 28 29.96 1014 10 16.0934 0 0
3:58 pm 15:58 Sunny 77 25 54 12.3 45 45 W 7 11 29.94 1014 10 16.0934 0 0
4:58 pm 16:58 Mostly Sunny 79 26 43 6.1 28 28 WNW 10 17 29.93 1014 10 16.0934 0 0
5:58 pm 17:58 Sunny 82 27.7 39 4.1 22 22 NW 14 22 29.92 1013 10 16.0934 0 0
6:58 pm 18:58 Mostly Sunny 85 29.6 35 1.5 16 16 WNW 20 31 29.88 1012 10 16.0934 0 0
7:58 pm 19:58 Sunny 85 29.5 37 2.5 18 18 W 10 17 29.85 1011 10 16.0934 0 0
8:58 pm 20:58 Sunny 88 31 35 1.9 15 15 NW 17 28 29.83 1010 10 16.0934 0 0
9:58 pm 21:58 Partly Cloudy 83 28.6 35 1.4 17 17 NNW 21 33 29.85 1011 10 16.0934 0.09 2.286
10:58 pm 22:58 Mostly Sunny 79 26.1 40 4.6 25 25 Calm 29.87 1012 10 16.0934 0 0
11:58 pm 23:58 Mostly Cloudy 79 26.3 37 3 22 22 Calm 29.85 1011 10 16.0934 0 0

Powered by AerisWeather